This is the latest recevied weather packets stored in our database for station/object SP1BMW-13. If no packets are shown the sender has not sent any weather packets the latest 10 day(s).
| Time | Temp. | Humidity | Pressure | Rain* | Wind** | Luminosity | Snow |
|---|---|---|---|---|---|---|---|
| 1787890158 | 17.78° C | 61% | 1012.9 hPa | 0 mm | 1.79 m/s, 93° | 2 W/m² | - |
| 1787890098 | 17.78° C | 61% | 1012.7 hPa | 0 mm | 0.89 m/s, 51° | 2 W/m² | - |
| 1787890038 | 17.78° C | 61% | 1012.8 hPa | 0 mm | 1.34 m/s, 31° | 2 W/m² | - |
| 1787889978 | 17.78° C | 61% | 1012.9 hPa | 0 mm | 0.89 m/s, 137° | 2 W/m² | - |
| 1787889917 | 17.78° C | 61% | 1012.7 hPa | 0 mm | 0.89 m/s, 98° | 2 W/m² | - |
| 1787889858 | 17.78° C | 61% | 1013 hPa | 0 mm | 0.89 m/s, 156° | 2 W/m² | - |
| 1787889798 | 17.78° C | 61% | 1013.2 hPa | 0 mm | 1.34 m/s, 43° | 2 W/m² | - |
| 1787889738 | 17.78° C | 61% | 1012.9 hPa | 0 mm | 1.34 m/s, 76° | 2 W/m² | - |
| 1787889678 | 17.78° C | 61% | 1013 hPa | 0 mm | 0.89 m/s, 95° | 2 W/m² | - |
| 1787889618 | 17.78° C | 61% | 1012.9 hPa | 0 mm | 1.34 m/s, 42° | 1 W/m² | - |
| 1787889558 | 17.78° C | 61% | 1013.1 hPa | 0 mm | 1.34 m/s, 66° | 1 W/m² | - |
| 1787889498 | 17.78° C | 61% | 1013 hPa | 0 mm | 0.89 m/s, 78° | 1 W/m² | - |
| 1787889438 | 17.78° C | 61% | 1013.2 hPa | 0 mm | 1.34 m/s, 96° | 1 W/m² | - |
| 1787889378 | 17.78° C | 60% | 1013.1 hPa | 0 mm | 0.89 m/s, 56° | 1 W/m² | - |
| 1787889318 | 17.78° C | 61% | 1013.1 hPa | 0 mm | 0.89 m/s, 89° | 1 W/m² | - |
| 1787889258 | 17.78° C | 60% | 1013.2 hPa | 0 mm | 1.79 m/s, 38° | 1 W/m² | - |
| 1787889198 | 17.78° C | 60% | 1013.4 hPa | 0 mm | 1.79 m/s, 85° | 1 W/m² | - |
| 1787889138 | 17.78° C | 60% | 1013.2 hPa | 0 mm | 0.89 m/s, 46° | 1 W/m² | - |
| 1787889078 | 17.78° C | 60% | 1013.3 hPa | 0 mm | 0.45 m/s, 87° | 1 W/m² | - |
| 1787889018 | 17.78° C | 60% | 1013.3 hPa | 0 mm | 0.89 m/s, 63° | 1 W/m² | - |
| 1787888958 | 17.78° C | 61% | 1013.1 hPa | 0 mm | 0.89 m/s, 131° | 0 W/m² | - |
| 1787888898 | 17.78° C | 60% | 1013.3 hPa | 0 mm | 0.89 m/s, 91° | 0 W/m² | - |
| 1787888838 | 17.78° C | 61% | 1013.1 hPa | 0 mm | 0.45 m/s, 91° | 0 W/m² | - |
| 1787888778 | 17.78° C | 60% | 1013.2 hPa | 0 mm | 2.24 m/s, 147° | 0 W/m² | - |
| 1787888717 | 17.78° C | 61% | 1013.3 hPa | 0 mm | 1.34 m/s, 66° | 0 W/m² | - |
* Rain latest hour (hover to see other rain measurements)
** Current wind speed in m/s (hover to see current wind gust speed)